Tracking 18980 objects as of 22-Feb-2018
HD Live streaming from Space Station
objects crossing your sky now

VIKING

Track VIKING now!
10-day predictions
VIKING is classified as:


NORAD ID: 16614
Int'l Code: 1986-019B
Perigee: 796.7 km
Apogee: 13,557.2 km
Inclination: 98.8 °
Period: 261.6 minutes
Semi major axis: 13547 km
RCS: 2.8796 m2 (large)
Launch date: February 22, 1986
Source: Sweden (SWED)
Launch site: FRENCH GUIANA (FRGUI)
aabbcc
Your satellite tracking list
Your tracking list is empty




NASA's NSSDC Master Catalog

Two Line Element Set (TLE):
1 16614U 86019B   18053.19395894 -.00000160  00000-0 -18741-2 0  9999
2 16614  98.8179  69.8042 4709393  24.2257 224.1063  5.50545127643216
Source of the keplerian elements: AFSPC